Regional Weather Roundup
Issued by NWS Little Rock, AR

Home | Current Version | Previous Version | Graphics & Text | Print | Product List | Glossary On
Versions: 1 2 3 4 5 6 7 8 9 10 11 12 13 14 15 16 17 18 19 20 21 22 23 24 25 26 27
000
ASUS44 KLZK 230705
RWRLZK

WEATHER ROUNDUP FOR ARKANSAS
NATIONAL WEATHER SERVICE LITTLE ROCK AR
200 AM CDT WED APR 23 2014

NOTE: "FAIR" INDICATES FEW OR NO CLOUDS BELOW 12,000 FEET WITH NO
SIGNIFICANT WEATHER AND/OR OBSTRUCTIONS TO VISIBILITY.

ARZ001-003-010-029-230800-
NORTHWEST ARKANSAS

CITY           SKY/WX    TMP DP  RH WIND       PRES   REMARKS
FAYETTEVILLE   PTCLDY    43  41  93 CALM      30.00S
FORT SMITH     CLEAR     50  45  83 CALM      29.97S
HARRISON       CLEAR     50  38  63 CALM      30.01F
BENTONVILLE    PTCLDY    52  37  58 SE3       30.00S
ROGERS         PTCLDY    53  45  74 E8        30.00F
SILOAM SPGS    PTCLDY    52  37  58 E6        30.00S
HIGHFILL       PTCLDY    52  40  63 SE3       29.99S
$$

ARZ004-005-016-230800-
NORTH CENTRAL ARKANSAS

CITY           SKY/WX    TMP DP  RH WIND       PRES   REMARKS
BATESVILLE     CLEAR     52  43  71 CALM      30.00S
FLIPPIN        CLEAR     48  36  61 N3        30.01S
MTN HOME       CLEAR     55  32  41 NE3       30.00S
$$

ARZ040-041-230800-
WEST CENTRAL ARKANSAS

CITY           SKY/WX    TMP DP  RH WIND       PRES   REMARKS
MENA           CLEAR     50  50 100 CALM      29.98S
MOUNT IDA      CLEAR     51  49  92 CALM      29.95S
$$

ARZ009-017-025-026-028-230800-
NORTHEAST ARKANSAS

CITY           SKY/WX    TMP DP  RH WIND       PRES   REMARKS
CORNING        FAIR      54  45  71 N5        30.01S
JONESBORO      CLEAR     54  42  64 NE7       29.99R
NEWPORT        CLEAR     56  46  69 NE6       30.01R
WALNUT RIDGE   CLEAR     54  39  58 NE7       30.00S
BLYTHEVILLE    CLEAR     50  44  80 NW3       29.99R
$$

ARZ022-023-033-042-044-230800-
CENTRAL ARKANSAS

CITY           SKY/WX    TMP DP  RH WIND       PRES   REMARKS
LITTLE ROCK    CLEAR     56  50  80 CALM      29.97F
N LITTLE ROCK    N/A     58  46  65 CALM      29.97F
JACKSONVILLE   CLEAR     50  46  88 CALM      29.97S
SEARCY         CLEAR     53  43  69 N5        29.99R
HOT SPRINGS    CLEAR     53  49  86 CALM      29.98S
RUSSELLVILLE   CLEAR     49  44  83 CALM      29.97F
CLINTON        FAIR      46  45  93 CALM      30.01R
$$

ARZ036-230800-
EAST ARKANSAS

CITY           SKY/WX    TMP DP  RH WIND       PRES   REMARKS
WEST MEMPHIS   CLEAR     53  45  74 NE3       29.96S
$$

ARZ050-053-066-070-073-230800-
SOUTHWEST ARKANSAS

CITY           SKY/WX    TMP DP  RH WIND       PRES   REMARKS
ARKADELPHIA    FAIR      57  56  97 CALM      29.97S
CAMDEN         CLEAR     54  50  87 MISG      29.96S FOG
TEXARKANA      CLEAR     60  54  80 CALM      29.94F
EL DORADO      CLEAR     57  56  96 CALM      29.96S FOG
DE QUEEN       CLEAR     53  53 100 CALM      29.94S
$$

ARZ056-057-069-230800-
SOUTHEAST ARKANSAS

CITY           SKY/WX    TMP DP  RH WIND       PRES   REMARKS
PINE BLUFF     CLEAR     55  51  86 CALM      29.96F
STUTTGART      CLEAR     57  50  77 NW5       29.96F
MONTICELLO     CLEAR     53  51  93 CALM      29.95F

$$





USA.gov is the U.S. government's official web portal to all federal, state and local government web resources and services.